Weather History for KPSP - September, 2014

Change the Weather History Date:

Friday, September 12, 2014

  Actual Average Record
Temperature  
Mean Temperature 95 °F 88 °F  
Max Temperature 110 °F 102 °F 120 °F (1971)
Min Temperature 80 °F 74 °F 53 °F (1930)
Degree Days  
Heating Degree Days 0 0  
Month to date heating degree days 0 0  
Since 1 July heating degree days 0 0  
Cooling Degree Days 30 23  
Month to date cooling degree days 322 290  
Year to date cooling degree days 3919 3374  
Growing Degree Days 46 (Base 50)    
Moisture  
Dew Point 46 °F    
Average Humidity 25    
Maximum Humidity 40    
Minimum Humidity 9    
Precipitation  
Precipitation 0.00 in 0.01 in 0.70 in (1939)
Month to date precipitation 0.04 0.20  
Year to date precipitation 1.94 3.73  
Since 1 July precipitation 1.19 0.79  
Snow  
Snow 0.00 in - - ()
Month to date snowfall 0.0  
Year to date snowfall 0.0  
Since 1 July snowfall 0.0  
Snow Depth 0.00 in    
Sea Level Pressure  
Sea Level Pressure 29.74 in    
Wind  
Wind Speed 5 mph (NNW)    
Max Wind Speed 12 mph    
Max Gust Speed 16 mph    
Visibility 10 miles    
Events      
T = Trace of Precipitation, MM = Missing Value Source: NWS Daily Summary

Daily Weather History Graph

Daily Weather History Graph

Search for Another Location

Airport or City:

Trip Planner

Search our weather history database for the weather conditions in past years. The results will help you decide how hot, cold, wet, or windy it might be!

Date:

Astronomy

Sep. 12, 2014 Rise Set
Actual Time 6:27 AM PDT 6:56 PM PDT
Civil Twilight 6:02 AM PDT 7:21 PM PDT
Nautical Twilight 5:32 AM PDT 7:50 PM PDT
Astronomical Twilight 5:02 AM PDT 8:20 PM PDT
Moon 9:33 PM PDT (9/12) 10:23 AM PDT (9/12)
Length of Visible Light 13h 19m
Length of Day
12h 29m
Waning Gibbous, 82% of the Moon is Illuminated
Sep 12
Waning Gibbous
Sep 15
Last Quarter
Sep 23
New
Oct 1
First Quarter
Oct 8
Full

Hourly Weather History & Observations

Time (PDT) Temp. Heat Index Dew Point Humidity Pressure Visibility Wind Dir Wind Speed Gust Speed Precip Events Conditions
12:53 AM 87.1 °F 85.7 °F 55.9 °F 35% 29.76 in 10.0 mi Calm Calm - N/A   Clear
2:53 AM 87.1 °F 85.1 °F 54.0 °F 32% 29.76 in 10.0 mi WNW 3.5 mph - N/A   Clear
3:53 AM 87.1 °F - 52.0 °F 30% 29.76 in 10.0 mi NW 4.6 mph - N/A   Clear
5:53 AM 82.9 °F 82.0 °F 55.0 °F 38% 29.78 in 10.0 mi West 5.8 mph - N/A   Clear
6:53 AM 84.9 °F - 52.0 °F 32% 29.79 in 10.0 mi NNW 8.1 mph - N/A   Clear
7:53 AM 87.1 °F - 51.1 °F 29% 29.81 in 10.0 mi NNW 8.1 mph - N/A   Clear
8:53 AM 93.9 °F - 48.0 °F 21% 29.81 in 10.0 mi NW 6.9 mph - N/A   Clear
9:53 AM 97.0 °F - 52.0 °F 22% 29.80 in 10.0 mi SW 3.5 mph - N/A   Clear
10:53 AM 102.0 °F - 43.0 °F 13% 29.79 in 10.0 mi Calm Calm - N/A   Clear
11:53 AM 106.0 °F - 37.9 °F 10% 29.78 in 10.0 mi ESE 6.9 mph - N/A   Clear
12:53 PM 107.1 °F - 35.1 °F 8% 29.75 in 10.0 mi SSE 6.9 mph - N/A   Partly Cloudy
1:53 PM 109.0 °F - 37.0 °F 9% 29.73 in 10.0 mi Variable 5.8 mph - N/A   Clear
2:53 PM 108.0 °F - 37.9 °F 9% 29.70 in 10.0 mi Variable 6.9 mph - N/A   Clear
3:53 PM 108.0 °F - 37.0 °F 9% 29.68 in 10.0 mi Calm Calm - N/A   Clear
4:53 PM 109.0 °F - 39.0 °F 9% 29.66 in 10.0 mi ESE 6.9 mph - N/A   Clear
5:53 PM 108.0 °F - 39.0 °F 10% 29.66 in 10.0 mi SSE 9.2 mph - N/A   Clear
6:53 PM 105.1 °F - 41.0 °F 11% 29.66 in 10.0 mi ESE 5.8 mph - N/A   Clear
7:53 PM 102.0 °F - 44.1 °F 14% 29.68 in 10.0 mi NE 9.2 mph - N/A   Clear
8:53 PM 99.0 °F - 52.0 °F 21% 29.70 in 10.0 mi ENE 8.1 mph - N/A   Clear
9:53 PM 97.0 °F - 50.0 °F 20% 29.71 in 10.0 mi WNW 4.6 mph - N/A   Clear
10:53 PM 97.0 °F - 52.0 °F 22% 29.73 in 10.0 mi NNW 8.1 mph - N/A   Clear
11:53 PM 95.0 °F - 50.0 °F 22% 29.73 in 10.0 mi NW 6.9 mph - N/A   Clear